Погода в Павилосте

Погода в Павилосте : погода сейчас, прогноз погоды и архив. Всё, что Вы хотите узнать о погоде в Павилосте!

Поиск расширенной информации на нашем сайте:

Другие новости

Новости СМИ2

Главная страница сайта

Новости сайта

03.07.2017

Напоминаем, что на нашем специализированном сайте Метеоцентр.Азия вы можете получить высокодетализированные автоматические прогнозы погоды по пунктам России, СНГ и мира в авиационном формате (включающие направление и скорость ветра, видимость, явления погоды, количество и форму облачности, нижнюю и верхнюю границу облачности).


Погода в Павилосте - сегодня

Время (UTC), дата Ветер
(°,м/с) 
Видим.   Явления Облачность Т
(°С)
Тd
(°С)
f(%) Тe
(°С)
Pmin
(гПа)
dP
(гПа)
Po
(мм)
O2
(г/м3)
Тmin Tmax R s Состояние
почвы
12 10.12.17 170 (Ю) 4-7  н/о    н/о 
+0.7 +0.4 98 -2  996  -0.8  746  300           
15 10.12.17 160 (Ю) 3-5  н/о    н/о 
+0.4 +0.1 98 -1  995.8  -0.2  746  300           
18 10.12.17 160 (Ю) 4-6  н/о    н/о 
+0.2 +0 99 -2  995.7  0.1  746  300           
21 10.12.17 150 (ЮВ) 4-7  н/о    н/о 
-1 -2 93 -4  995.4  -0.4  746  302           
00 11.12.17 140 (ЮВ) 4-7  н/о    н/о 
-1.7 -2.8 92 -4  994.4  -0.9  745  302           
03 11.12.17 120 (ЮВ) 4-7  н/о    н/о 
-2.2 -3.2 93 -5  993  -1.4  744  303           
06 11.12.17 130 (ЮВ) 4-7  н/о    н/о 
-1.6 -3.1 89 -4  993.2  0.2  744  302           
09 11.12.17 130 (ЮВ) 4-6  н/о    н/о 
-1.4 -2.8 90 -4  993.9  0.7  745  302           
12 11.12.17 130 (ЮВ) 5-9  н/о    н/о 
-0.6 -2.2 89 -4  993.6  -0.3  744  301           
15 11.12.17 120 (ЮВ) 3-6  н/о    н/о 
-0.5 -1 96 -2  994.9  1.2  745  301           
18 11.12.17 130 (ЮВ) 4-7  н/о    н/о 
+0.1 -0.4 96 -2  995  0.1  745  300           
21 11.12.17 130 (ЮВ) 4-6  н/о    н/о 
+0.9 +0.4 96 -1  994.4  -0.5  745  299           
00 12.12.17 140 (ЮВ) 4-6  н/о    н/о 
+1.1 +0.4 95 -1  993.2  -1.1  744  299           
03 12.12.17 140 (ЮВ) 6-11  н/о    н/о 
+1.5 +0.6 94 -2  989.8  -3.4  742  297           
06 12.12.17 160 (Ю) 5-9  н/о    н/о 
+2.3 +1.6 95 988.1  -1.7  740  296           
12 12.12.17 210 (ЮЗ) 5-10  н/о    н/о 
+6.3 +5.8 97 +4  987.5  0.3  740  290           
15 12.12.17 220 (ЮЗ) 6-12  н/о    н/о 
+6.5 +5.1 91 +4  988.7  1.3  741  291           
18 12.12.17 //0 (С) //  н/о    н/о 
+6 +3.6 85 +6  990.4  1.6  742  292           
21 12.12.17 270 (З) 6-11  н/о    н/о 
+3.9 +2.5 91 +1  992.3  1.9  743  295           
00 13.12.17 300 (СЗ) 8-13  н/о    н/о 
+2.6 +1.3 91 -1  997.6  5.2  747  298           
03 13.12.17 290 (З) 7-11  н/о    н/о 
+2.6 -1.9 72 -1  1002.3  4.7  751  300           
06 13.12.17 270 (З) 5-9  н/о    н/о 
+2.2 -3.5 66 1004.7  2.3  753  301           
09 13.12.17 270 (З) 6-10  н/о    н/о 
+4.5 +1.9 83 +2  1005  0.4  753  298           
12 13.12.17 250 (З) 5-10  н/о    н/о 
+4 +2.3 89 +2  1005.4  0.4  753  299           
15 13.12.17 230 (ЮЗ) 6-11  н/о    н/о 
+4.5 -1.6 65 +2  1005.3  0.1  753  299           
Время (UTC), дата Ветер
(°,м/с) 
Видим.   Явления Облачность Т
(°С)
Тd
(°С)
f(%) Тe
(°С)
Pmin
(гПа)
dP
(гПа)
Po
(мм)
O2
(г/м3)
Тmin Tmax R s Состояние
почвы

Для получения пояснительной информации подведите курсор к названию столбца.

ПОГОДА в Павилосте - архив

Всё, что Вы хотите узнать о погоде в Павилосте - удобно и подробно!

Выберите нужную дату (начиная с 1 января 2015* года) и нажмите кнопку "Найти".
Будут отображены архивные сводки погоды по пункту Павилоста, начиная с указанной даты.


Отображать данные в формате CSV (для использования в таблицах Excel)


Внимание! Наш архив погоды предназначен исключительно для личного некоммерческого использования в познавательных целях. Если Вам необходимы официальные справки о состоянии погоды (для производственных, юридических, коммерческих и т.п. целей), обращайтесь в органы Росгидромета.

*Примечание: данная дата относится к архиву по метеостанциям СССР (Россия, СНГ, Балтия).
Архив по метеостанциям Зарубежной Европы и Азии (кроме Китая) хранится 10 дней, по другим регионам земного шара (Китай, Африка, Америка, Австралия, Океания) - 1 день.

Павилоста - район местоположения метеостанции


Название, широта, долгота, высота метеостанции:
Павилоста 56.9°ш. 21.2°д. 10 м над ур. моря [Латвия]

Дополнительная информация

В oтличие oт бoльшинства пoгoдных сайтoв мы публикуем пoдрoбную метеoинфoрмацию в детальнoм прoфессиoнальнoм фoрмате.

Характеристики температуры и влажнoсти вoздуха измеряются на высoте 2 м в тени вдали oт зданий и деревьев.
Скoрoсть ветра измеряется на высoте 10 м (на урoвне рoста челoвека скoрoсть ветра ниже в 1.5-2 раза). Если метеoстанция нахoдится в гoрoде или в лесу, тo скoрoсть ветра занижена на 2-4 м/с пo сравнению с oткрытым местoм. Скoрoсть ветра над акватoриями крупных рек и oзёр, а также на вершинах хoлмoв на 2-5 м/с выше, чем в oбычных услoвиях.
Атмoсфернoе давление в разных тoчках местнoсти мoжет значительнo oтличаться oт давления на метеoстанции, в зависимoсти oт услoвий рельефа (при пoдъёме на 10 м давление пoнижается примернo на 1 мм рт.ст.).